Location: Antioch Baptist Church
(32.6696°N, 85.7327°W)
Time: 21:07:29
(UTC+00:00)

CZ-4B R/B - Pass Details

Date: 14 July 2020
Orbit: 702 x 803 km, 98.9° (Epoch: 12 August)

Event Time Altitude Azimuth Distance (km) Brightness Sun altitude
Rises 07:22:43 0° 17° (NNE) 3,212 7.8 -31.3°
Reaches altitude 10° 07:25:05 10° 21° (NNE) 2,268 6.8 -31.1°
Enters shadow 07:28:58 48° 53° (NE) 952 4.2 -30.7°
